Norah Head Observation History
Time Wind Speed Temp Pressure Rel. Hum Rain
04/08:00am SW 7-13 kts 12.3°c 1031.5 hPa 65% 0.0mm
04/07:30am SW 9-16 kts 12.5°c 1031.3 hPa 66% 0.0mm
04/07:00am WSW 7-12 kts 11.5°c 1031.0 hPa 65% 0.0mm
04/06:30am SW 7-13 kts 12.0°c 1030.8 hPa 65% 0.0mm
04/06:00am WSW 5-10 kts 11.2°c 1030.4 hPa 69% 0.0mm
04/05:30am WSW 5-8 kts 11.8°c 1030.1 hPa 67% 0.0mm
04/05:00am WSW 7-14 kts 12.5°c 1029.6 hPa 62% 0.0mm
04/04:30am SW 10-18 kts 13.2°c 1029.3 hPa 67% 0.0mm
04/04:00am SW 13-21 kts 13.4°c 1029.2 hPa 65% 0.0mm
04/03:30am SW 11-18 kts 13.7°c 1029.0 hPa 65% 0.0mm
04/03:00am SW 13-23 kts 13.9°c 1028.9 hPa 66% 0.0mm
04/02:30am SW 8-14 kts 13.8°c 1028.8 hPa 64% 0.0mm
04/02:00am SW 12-20 kts 14.2°c 1028.8 hPa 66% 0.0mm
04/01:30am SW 11-21 kts 14.5°c 1028.7 hPa 62% 0.0mm
04/01:05am SSW 15-28 kts 15.1°c 1028.6 hPa 66% 0.0mm
04/01:00am SW 12-18 kts 14.9°c 1028.6 hPa 63% 0.0mm
04/12:30am SSW 17-26 kts 15.4°c 1028.5 hPa 68% 0.0mm
04/12:00am SSW 20-27 kts 15.4°c 1028.5 hPa 70% 0.0mm
Time Wind Speed Temp Pressure Rel. Hum Rain
03/11:30pm SSW 21-28 kts 15.7°c 1028.5 hPa 68% 0.0mm
03/11:00pm SSW 19-27 kts 15.8°c 1028.3 hPa 69% 0.0mm
03/10:30pm SSW 19-27 kts 15.9°c 1028.4 hPa 69% 0.0mm
03/10:00pm S 20-27 kts 16.2°c 1028.1 hPa 66% 0.0mm
03/09:30pm S 24-30 kts 16.2°c 1027.8 hPa 64% 0.0mm
03/09:00pm SSW 23-30 kts 16.3°c 1027.6 hPa 67% 0.0mm
03/08:30pm S 24-31 kts 16.0°c 1027.3 hPa 66% 0.0mm
03/08:00pm S 22-28 kts 16.1°c 1027.1 hPa 65% 0.0mm
03/07:30pm S 24-30 kts 16.3°c 1026.5 hPa 68% 0.0mm
03/07:00pm S 23-31 kts 16.5°c 1026.2 hPa 66% 0.0mm
03/06:30pm S 24-31 kts 16.5°c 1025.6 hPa 60% 0.0mm
03/06:00pm S 25-31 kts 16.6°c 1025.2 hPa 52% 0.0mm
03/05:30pm S 23-30 kts 16.4°c 1024.8 hPa 57% 0.0mm
03/05:00pm S 26-32 kts 16.4°c 1024.3 hPa 58% 0.0mm
03/04:30pm S 21-27 kts 16.4°c 1024.1 hPa 61% 0.0mm
03/04:00pm S 23-30 kts 16.4°c 1023.6 hPa 56% 0.0mm
03/03:30pm S 25-31 kts 16.8°c 1023.2 hPa 53% 0.0mm
03/03:00pm S 20-27 kts 16.7°c 1022.9 hPa 58% 0.0mm
03/02:30pm S 19-25 kts 16.9°c 1022.7 hPa 51% 0.0mm
03/02:00pm SSW 17-24 kts 16.9°c 1022.3 hPa 52% 0.0mm
03/01:31pm SSW 16-26 kts 16.9°c 1022.1 hPa 55% 0.0mm
03/01:30pm SSW 16-22 kts 16.9°c 1022.1 hPa 56% 0.0mm
03/01:00pm SSW 19-26 kts 17.4°c 1021.9 hPa 53% 0.0mm
03/12:30pm SSW 14-19 kts 17.0°c 1021.9 hPa 49% 0.0mm
03/12:00pm SW 7-14 kts 16.9°c 1022.0 hPa 51% 0.0mm
03/11:30am SW 8-12 kts 16.7°c 1022.2 hPa 54% 0.0mm
03/11:00am SW 9-17 kts 16.1°c 1022.4 hPa 54% 0.0mm
03/10:30am WSW 8-16 kts 15.7°c 1022.3 hPa 56% 0.0mm
03/10:00am W 5-9 kts 15.1°c 1022.0 hPa 62% 0.0mm
03/09:30am W 2-5 kts 14.0°c 1021.8 hPa 63% 0.0mm
03/09:00am WNW 4-10 kts 13.4°c 1021.4 hPa 66% 3.8mm
03/08:30am NW 5-9 kts 11.9°c 1020.9 hPa 69% 3.8mm
03/08:00am WNW 4-11 kts 10.8°c 1020.7 hPa 73% 3.8mm
03/07:30am NW 5-10 kts 9.6°c 1020.1 hPa 77% 3.8mm
03/07:00am WNW 4-8 kts 9.0°c 1019.6 hPa 77% 3.8mm
03/06:30am NW 4-6 kts 9.1°c 1019.2 hPa 79% 3.8mm
03/06:00am WNW 5-7 kts 8.8°c 1019.4 hPa 77% 3.8mm
03/05:30am WNW 5-8 kts 8.7°c 1019.2 hPa 78% 3.8mm
03/05:00am WNW 4-8 kts 8.8°c 1018.8 hPa 77% 3.8mm
03/04:30am WNW 5-8 kts 9.2°c 1018.6 hPa 76% 3.8mm
03/04:00am WNW 4-7 kts 8.8°c 1018.3 hPa 78% 3.8mm
03/03:30am NW 4-8 kts 8.9°c 1018.1 hPa 78% 3.8mm
03/03:00am NW 4-7 kts 8.8°c 1018.1 hPa 77% 3.8mm
03/02:30am NW 4-8 kts 8.6°c 1018.2 hPa 76% 3.8mm
03/02:00am NW 4-6 kts 8.9°c 1018.2 hPa 76% 3.8mm
03/01:30am NW 3-5 kts 8.9°c 1018.2 hPa 75% 3.8mm
03/01:00am NW 4-7 kts 8.9°c 1018.2 hPa 74% 3.8mm
03/12:30am WNW 3-5 kts 8.5°c 1018.4 hPa 73% 3.8mm
03/12:00am WNW 3-5 kts 8.5°c 1018.7 hPa 73% 3.8mm
Time Wind Speed Temp Pressure Rel. Hum Rain
02/11:30pm NW 3-7 kts 8.9°c 1018.7 hPa 72% 3.8mm
02/11:00pm WNW 3-5 kts 9.1°c 1018.6 hPa 69% 3.8mm
02/10:30pm WNW 4-7 kts 9.4°c 1018.4 hPa 67% 3.8mm
02/10:00pm W 5-9 kts 9.7°c 1018.4 hPa 66% 3.8mm
02/09:30pm WNW 4-8 kts 9.8°c 1018.3 hPa 66% 3.8mm
02/09:00pm WNW 4-8 kts 10.0°c 1018.4 hPa 66% 3.8mm
02/08:30pm WNW 5-10 kts 10.3°c 1018.2 hPa 66% 3.8mm
02/08:00pm W 6-13 kts 10.8°c 1018.0 hPa 64% 3.8mm
02/07:30pm W 7-12 kts 11.2°c 1017.5 hPa 64% 3.8mm
02/07:00pm W 6-12 kts 11.5°c 1017.1 hPa 64% 3.8mm
02/06:30pm W 7-12 kts 11.9°c 1016.6 hPa 64% 3.8mm
02/06:00pm W 5-10 kts 12.5°c 1016.0 hPa 64% 3.8mm
02/05:30pm W 5-9 kts 12.9°c 1015.7 hPa 67% 3.8mm
02/05:00pm WSW 6-9 kts 13.5°c 1015.1 hPa 63% 3.8mm
02/04:30pm WSW 5-11 kts 13.9°c 1014.6 hPa 63% 3.8mm
02/04:00pm WSW 6-9 kts 13.8°c 1014.4 hPa 64% 3.8mm
02/03:30pm WSW 7-11 kts 13.4°c 1014.2 hPa 69% 3.8mm
02/03:00pm WSW 7-9 kts 13.4°c 1014.1 hPa 69% 3.8mm
02/02:30pm WSW 6-9 kts 13.1°c 1013.8 hPa 72% 3.8mm
02/02:00pm WSW 5-7 kts 12.6°c 1013.6 hPa 75% 3.8mm
02/01:30pm W 4-9 kts 12.5°c 1013.2 hPa 76% 3.8mm
02/01:00pm W 3-7 kts 11.9°c 1013.2 hPa 80% 3.8mm
02/12:30pm WNW 3-7 kts 11.5°c 1013.3 hPa 87% 3.8mm
02/12:00pm NW 4-6 kts 10.6°c 1013.6 hPa 89% 3.8mm
02/11:30am NW 5-10 kts 10.0°c 1013.8 hPa 90% 3.8mm
02/11:00am NW 4-7 kts 9.4°c 1014.3 hPa 90% 3.6mm
02/10:30am NW 5-8 kts 8.8°c 1014.8 hPa 89% 3.4mm
02/10:00am WNW 4-7 kts 8.7°c 1015.3 hPa 86% 2.6mm
02/09:30am W 6-10 kts 9.2°c 1015.3 hPa 77% 0.4mm
02/09:00am W 4-8 kts 9.7°c 1014.9 hPa 73% 0.2mm
02/08:30am W 6-13 kts 10.1°c 1014.9 hPa 66% 0.2mm
02/08:00am WNW 6-11 kts 10.7°c 1014.3 hPa 62% 0.2mm
02/07:30am WNW 3-7 kts 9.4°c 1014.2 hPa 66% 0.2mm
02/07:00am WNW 3-8 kts 8.9°c 1013.9 hPa 67% 0.2mm
02/06:30am NW 4-8 kts 8.8°c 1013.5 hPa 67% 0.2mm
02/06:00am WNW 3-8 kts 8.9°c 1013.5 hPa 64% 0.2mm
02/05:30am WNW 3-6 kts 9.2°c 1013.0 hPa 64% 0.2mm
02/05:00am W 4-10 kts 9.5°c 1012.4 hPa 62% 0.2mm
02/04:30am WNW 4-9 kts 9.7°c 1011.8 hPa 63% 0.2mm
02/04:00am NW 5-10 kts 9.9°c 1011.6 hPa 62% 0.2mm
02/03:30am NW 5-11 kts 9.9°c 1011.6 hPa 62% 0.2mm
02/03:00am WNW 7-12 kts 9.6°c 1011.8 hPa 62% 0.2mm
02/02:30am WNW 5-11 kts 9.7°c 1012.3 hPa 64% 0.2mm
02/02:00am WNW 3-7 kts 9.7°c 1012.8 hPa 64% 0.2mm
02/01:30am NW 4-9 kts 10.1°c 1013.0 hPa 62% 0.2mm
02/01:00am NW 5-9 kts 10.3°c 1013.0 hPa 63% 0.2mm
02/12:30am NW 3-5 kts 10.1°c 1013.2 hPa 64% 0.2mm
02/12:00am NW 3-6 kts 10.5°c 1013.2 hPa 64% 0.2mm